User: anonymous   Login
Location: Shanghai
(30.7041°N, 120.7947°E)
Time: 23:07:58
(UTC+08:00)
Language:

Iridium 75 - Orbit

View from above orbital plane
View from above orbital plane
View from above satellite
View from above satellite

Ground track
Ground track

The orbit data is extracted from the following two-line orbital elements,

1 25346U 98032E   18171.02860703  .00386532  31910-4  13260-2 0  9995
2 25346  86.3986  70.2002 0349883 172.5270 188.1402 15.33879989 52410
Epoch (UTC): 20 June 2018 00:41:11
Eccentricity: 0.0349883
inclination: 86.3986°
perigee height: 225 km
apogee height: 703 km
right ascension of ascending node: 70.2002°
argument of perigee: 172.5270°
revolutions per day: 15.33879989
mean anomaly at epoch: 188.1402°
orbit number at epoch: 5241

The dashed part of the orbit path shows where the satellite is in the earth's shadow,  

DLR